Sparta, TN

9:13 AM CDT on April 29, 2017 (GMT -0500)
Upper Cumberland Regional

Weather History for KSRB - November, 2012

Change the Weather History Date:

Thursday, November 1, 2012

  Actual Average (KCSV) Record (KCSV)
Temperature  
Mean Temperature 39 °F -  
Max Temperature 57 °F 66 °F 81 °F (2016)
Min Temperature 21 °F 45 °F 23 °F (1993)
Degree Days  
Heating Degree Days 26    
Moisture  
Dew Point 26 °F    
Average Humidity 66    
Maximum Humidity 100    
Minimum Humidity 25    
Precipitation  
Precipitation 0.00 in - - ()
Sea Level Pressure  
Sea Level Pressure 29.96 in    
Wind  
Wind Speed 2 mph ()    
Max Wind Speed 12 mph    
Max Gust Speed -    
Visibility 10.0 miles    
Events      
Averages and records for this station are not official NWS values.
T = Trace of Precipitation, MM = Missing Value Source: Averaged Metar Reports

Daily Weather History Graph

Daily Weather History Graph

Search for Another Location

Airport or City:

Trip Planner

Search our weather history database for the weather conditions in past years. The results will help you decide how hot, cold, wet, or windy it might be!

Date:

Astronomy

Nov. 01, 2012 Rise Set
Actual Time 7:05 AM CDT 5:45 PM CDT
Civil Twilight 6:38 AM CDT 6:12 PM CDT
Nautical Twilight 6:08 AM CDT 6:42 PM CDT
Astronomical Twilight 5:38 AM CDT 7:12 PM CDT
Moon 7:46 PM CDT (11/1) 9:33 AM CDT (11/1)
Length of Visible Light 11h 33m
Length of Day
10h 40m
Waning Gibbous, 93% of the Moon is Illuminated
Nov 1
Waning Gibbous
Nov 6
Last Quarter
Nov 13
New
Nov 20
First Quarter
Nov 28
Full

Hourly Weather History & Observations

Time (CDT) Temp. Windchill Dew Point Humidity Pressure Visibility Wind Dir Wind Speed Gust Speed Precip Events Conditions
12:15 AM 26.6 °F - 24.8 °F 93% 29.94 in 10.0 mi Calm Calm - N/A   Clear
12:35 AM 24.8 °F - 24.8 °F 100% 29.94 in 10.0 mi Calm Calm - N/A   Clear
1:15 AM 24.8 °F - 24.8 °F 100% 29.93 in 10.0 mi Calm Calm - N/A   Clear
1:35 AM 24.8 °F - 24.8 °F 100% 29.93 in 10.0 mi Calm Calm - N/A   Clear
1:55 AM 24.8 °F - 23.0 °F 93% 29.94 in 10.0 mi Calm Calm - N/A   Clear
2:15 AM 24.8 °F - 21.2 °F 86% 29.93 in 10.0 mi Calm Calm - N/A   Clear
2:35 AM 24.8 °F - 23.0 °F 93% 29.93 in 10.0 mi Calm Calm - N/A   Clear
2:55 AM 23.0 °F - 21.2 °F 93% 29.94 in 10.0 mi Calm Calm - N/A   Clear
3:15 AM 23.0 °F - 21.2 °F 93% 29.95 in 10.0 mi Calm Calm - N/A   Clear
3:35 AM 23.0 °F - 21.2 °F 93% 29.94 in 10.0 mi Calm Calm - N/A   Clear
3:55 AM 21.2 °F - 21.2 °F 100% 29.94 in 10.0 mi Calm Calm - N/A   Clear
4:15 AM 23.0 °F - 21.2 °F 93% 29.94 in 10.0 mi Calm Calm - N/A   Clear
4:35 AM 21.2 °F - 21.2 °F 100% 29.94 in 10.0 mi Calm Calm - N/A   Clear
4:55 AM 21.2 °F - 21.2 °F 100% 29.95 in 10.0 mi Calm Calm - N/A   Clear
5:15 AM 21.2 °F - 19.4 °F 93% 29.94 in 10.0 mi Calm Calm - N/A   Clear
5:35 AM 21.2 °F - 19.4 °F 93% 29.95 in 10.0 mi Calm Calm - N/A   Clear
5:55 AM 21.2 °F - 19.4 °F 93% 29.96 in 10.0 mi Calm Calm - N/A   Clear
6:15 AM 21.2 °F - 19.4 °F 93% 29.96 in 10.0 mi Calm Calm - N/A   Clear
6:35 AM 21.2 °F - 21.2 °F 100% 29.96 in 10.0 mi Calm Calm - N/A   Clear
7:15 AM 21.2 °F - 19.4 °F 93% 29.98 in 10.0 mi Calm Calm - N/A   Clear
7:35 AM 21.2 °F - 19.4 °F 93% 29.99 in 10.0 mi Calm Calm - N/A   Clear
7:55 AM 26.6 °F - 24.8 °F 93% 30.00 in 10.0 mi Calm Calm - N/A   Clear
8:35 AM 33.8 °F - 28.4 °F 81% 30.00 in 10.0 mi Calm Calm - N/A   Clear
9:15 AM 37.4 °F - 30.2 °F 75% 30.00 in 10.0 mi Calm Calm - N/A   Clear
9:35 AM 41.0 °F 39.0 °F 30.2 °F 65% 30.00 in 10.0 mi Variable 3.5 mph - N/A   Clear
9:55 AM 42.8 °F 39.3 °F 30.2 °F 61% 30.02 in 10.0 mi West 5.8 mph - N/A   Clear
10:15 AM 44.6 °F 42.2 °F 30.2 °F 57% 30.01 in 10.0 mi West 4.6 mph - N/A   Clear
10:35 AM 46.4 °F 44.3 °F 28.4 °F 50% 30.01 in 10.0 mi Variable 4.6 mph - N/A   Clear
10:55 AM 48.2 °F - 26.6 °F 43% 30.02 in 10.0 mi NW 6.9 mph - N/A   Clear
11:15 AM 50.0 °F - 24.8 °F 37% 30.02 in 10.0 mi West 4.6 mph - N/A   Clear
11:35 AM 51.8 °F - 23.0 °F 33% 30.01 in 10.0 mi Variable 5.8 mph - N/A   Clear
11:55 AM 51.8 °F - 21.2 °F 30% 30.01 in 10.0 mi Variable 6.9 mph - N/A   Clear
12:15 PM 51.8 °F - 21.2 °F 30% 29.99 in 10.0 mi WNW 6.9 mph - N/A   Clear
12:35 PM 53.6 °F - 21.2 °F 28% 29.99 in 10.0 mi Variable 5.8 mph - N/A   Clear
1:15 PM 55.4 °F - 24.8 °F 31% 29.98 in 10.0 mi Variable 6.9 mph - N/A   Clear
1:35 PM 55.4 °F - 21.2 °F 26% 29.96 in 10.0 mi NW 11.5 mph - N/A   Clear
1:55 PM 55.4 °F - 21.2 °F 26% 29.96 in 10.0 mi NW 9.2 mph - N/A   Clear
2:15 PM 57.2 °F - 23.0 °F 27% 29.95 in 10.0 mi West 8.1 mph - N/A   Clear
2:35 PM 57.2 °F - 24.8 °F 29% 29.95 in 10.0 mi Variable 4.6 mph - N/A   Clear
2:55 PM 57.2 °F - 23.0 °F 27% 29.95 in 10.0 mi West 8.1 mph - N/A   Clear
3:15 PM 57.2 °F - 24.8 °F 29% 29.95 in 10.0 mi West 9.2 mph - N/A   Clear
3:35 PM 57.2 °F - 23.0 °F 27% 29.95 in 10.0 mi West 5.8 mph - N/A   Clear
4:15 PM 57.2 °F - 21.2 °F 25% 29.95 in 10.0 mi NW 6.9 mph - N/A   Clear
4:35 PM 55.4 °F - 23.0 °F 29% 29.95 in 10.0 mi Variable 4.6 mph - N/A   Clear
4:55 PM 55.4 °F - 21.2 °F 26% 29.95 in 10.0 mi Variable 5.8 mph - N/A   Clear
5:15 PM 55.4 °F - 23.0 °F 29% 29.95 in 10.0 mi WNW 4.6 mph - N/A   Clear
5:35 PM 53.6 °F - 23.0 °F 30% 29.96 in 10.0 mi West 3.5 mph - N/A   Clear
5:55 PM 51.8 °F - 23.0 °F 33% 29.95 in 10.0 mi Calm Calm - N/A   Clear
6:15 PM 42.8 °F - 28.4 °F 57% 29.95 in 10.0 mi Calm Calm - N/A   Clear
6:35 PM 39.2 °F - 30.2 °F 70% 29.96 in 10.0 mi Calm Calm - N/A   Clear
6:55 PM 37.4 °F - 28.4 °F 70% 29.95 in 10.0 mi Calm Calm - N/A   Clear
7:15 PM 37.4 °F - 28.4 °F 70% 29.95 in 10.0 mi Calm Calm - N/A   Clear
7:35 PM 37.4 °F - 28.4 °F 70% 29.96 in 10.0 mi Calm Calm - N/A   Clear
7:55 PM 35.6 °F - 28.4 °F 75% 29.96 in 10.0 mi Calm Calm - N/A   Clear
8:15 PM 37.4 °F - 30.2 °F 75% 29.96 in 10.0 mi Calm Calm - N/A   Partly Cloudy
8:35 PM 39.2 °F - 32.0 °F 75% 29.96 in 10.0 mi Calm Calm - N/A   Partly Cloudy
8:55 PM 42.8 °F - 33.8 °F 70% 29.96 in 10.0 mi Calm Calm - N/A   Scattered Clouds
9:15 PM 42.8 °F - 35.6 °F 76% 29.96 in 10.0 mi Calm Calm - N/A   Scattered Clouds
9:35 PM 42.8 °F - 35.6 °F 76% 29.96 in 10.0 mi Calm Calm - N/A   Scattered Clouds
9:55 PM 42.8 °F - 37.4 °F 81% 29.96 in 10.0 mi Calm Calm - N/A   Mostly Cloudy
10:15 PM 42.8 °F - 35.6 °F 76% 29.96 in 10.0 mi Calm Calm - N/A   Scattered Clouds
10:35 PM 42.8 °F - 35.6 °F 76% 29.95 in 10.0 mi Calm Calm - N/A   Scattered Clouds
10:55 PM 42.8 °F - 37.4 °F 81% 29.95 in 10.0 mi Calm Calm - N/A   Partly Cloudy
11:15 PM 42.8 °F - 33.8 °F 70% 29.95 in 10.0 mi Calm Calm - N/A   Partly Cloudy
11:35 PM 44.6 °F - 35.6 °F 71% 29.95 in 10.0 mi Calm Calm - N/A   Scattered Clouds
11:55 PM 44.6 °F 42.2 °F 33.8 °F 66% 29.95 in 10.0 mi SSW 4.6 mph - N/A   Scattered Clouds